Weather History for Piney Island, NC

Change the Weather History Date:

Wednesday, December 19, 2012

  Actual Average (KMRH) Record (KMRH)
Temperature  
Mean Temperature 53 °F -  
Max Temperature 64 °F 57 °F 72 °F (1967)
Min Temperature 42 °F 34 °F 18 °F (1975)
Degree Days  
Heating Degree Days 12    
Growing Degree Days 3 (Base 50)    
Moisture  
Dew Point 42 °F    
Average Humidity 68    
Maximum Humidity 89    
Minimum Humidity 41    
Precipitation  
Precipitation 0.00 in - - ()
Sea Level Pressure  
Sea Level Pressure 30.03 in    
Wind  
Wind Speed 7 mph (WSW)    
Max Wind Speed 15 mph    
Max Gust Speed -    
Visibility 10 miles    
Events      
Averages and records for this station are not official NWS values.
T = Trace of Precipitation, MM = Missing Value Source: NWS Daily Summary

Daily Weather History Graph

Daily Weather History Graph

Search for Another Location

Airport:

Trip Planner

Search our weather history database for the weather conditions in past years. The results will help you decide how hot, cold, wet, or windy it might be!

Date:

Astronomy

Dec. 19, 2012 Rise Set
Actual Time 7:09 AM EST 4:57 PM EST
Civil Twilight 6:41 AM EST 5:25 PM EST
Nautical Twilight 6:09 AM EST 5:57 PM EST
Astronomical Twilight 5:38 AM EST 6:28 PM EST
Moon 11:32 AM EST (12/19) No Moon Set
Length of Visible Light 10h 44m
Length of Day
9h 48m
Waxing Crescent, 45% of the Moon is Illuminated
Dec 19
Waxing Crescent
Dec 20
First Quarter
Dec 28
Full
Jan 4
Last Quarter
Jan 11
New

Hourly Weather History & Observations

Time (EST) Temp. Windchill Dew Point Humidity Pressure Visibility Wind Dir Wind Speed Gust Speed Precip Events Conditions
12:56 AM 50.0 °F - 39.0 °F 66% 29.91 in 10.0 mi WNW 6.9 mph - N/A   Clear
1:56 AM 48.9 °F - 39.0 °F 69% 29.94 in 10.0 mi West 6.9 mph - N/A   Clear
2:56 AM 46.9 °F - 37.9 °F 71% 29.96 in 10.0 mi West 6.9 mph - N/A   Clear
3:56 AM 42.1 °F 38.4 °F 39.0 °F 89% 29.96 in - WSW 5.8 mph - N/A   Clear
4:56 AM 44.1 °F 40.8 °F 39.0 °F 82% 29.97 in - SW 5.8 mph - N/A   Clear
5:56 AM 45.0 °F 40.6 °F 39.9 °F 82% 30.00 in - SW 8.1 mph - N/A   Clear
6:56 AM 45.0 °F 40.6 °F 39.9 °F 82% 30.01 in - WSW 8.1 mph - N/A   Clear
7:56 AM 45.0 °F 41.8 °F 41.0 °F 86% 30.01 in - SW 5.8 mph - N/A   Clear
8:56 AM 48.9 °F - 39.9 °F 71% 30.03 in - WSW 8.1 mph - N/A   Clear
9:56 AM 54.0 °F - 41.0 °F 62% 30.04 in - West 12.7 mph - N/A   Clear
10:56 AM 57.9 °F - 37.9 °F 47% 30.04 in - West 15.0 mph - N/A   Clear
11:56 AM 59.0 °F - 39.0 °F 48% 30.03 in 10.0 mi West 12.7 mph - N/A   Clear
12:56 PM 61.0 °F - 39.0 °F 44% 30.00 in 10.0 mi West 13.8 mph - N/A   Clear
1:56 PM 63.0 °F - 39.9 °F 43% 30.00 in 10.0 mi West 10.4 mph - N/A   Clear
2:56 PM 64.0 °F - 39.9 °F 41% 30.00 in 10.0 mi West 10.4 mph - N/A   Clear
3:56 PM 61.0 °F - 42.1 °F 50% 30.01 in 10.0 mi West 6.9 mph - N/A   Clear
4:56 PM 60.1 °F - 43.0 °F 53% 30.03 in 10.0 mi WSW 5.8 mph - N/A   Clear
5:56 PM 55.9 °F - 44.1 °F 64% 30.06 in 10.0 mi SW 5.8 mph - N/A   Clear
6:56 PM 53.1 °F - 46.0 °F 77% 30.09 in 10.0 mi SSW 5.8 mph - N/A   Clear
7:56 PM 54.0 °F - 46.9 °F 77% 30.11 in 10.0 mi SW 4.6 mph - N/A   Clear
8:56 PM 51.1 °F - 45.0 °F 80% 30.12 in 10.0 mi SW 5.8 mph - N/A   Clear
9:56 PM 51.1 °F - 46.9 °F 86% 30.14 in 10.0 mi Calm Calm - N/A   Clear
10:56 PM 51.1 °F - 46.0 °F 83% 30.15 in 10.0 mi Calm Calm - N/A   Clear
11:56 PM 53.1 °F - 48.0 °F 83% 30.14 in 10.0 mi NE 3.5 mph - N/A   Clear